Temperature
8 8 7 7 7 7 6 6 6 6 6 7 7 6 6 5 5 4 3 3 3 2 2 2 2 1 -0 -0 -0 -1 -1 -2 -2 -1 -1 -1 -1 -1 -1 -1 -1 -1 -2 -2
6 5 5 5 6 6 5 6 6 5 6 7 5 5 4 4 3 3 2 2 1 1 0 0 0 0 -0 -1 -1 -1 -2 -3 -3 -3 -3 -3 -3 -3 -3 -3 -3 -3 -3 -2
6 4 5 6 6 5 5 5 5 4 4 5 5 4 3 2 2 2 0 -0 -1 -1 -1 -1 -1 -1 -1 -1 -2 -2 -3 -4 -4 -4 -4 -4 -4 -4 -4 -4 -4 -4 -4 -3
4 4 3 7 5 4 4 5 5 5 5 4 3 2 2 2 1 -0 -1 -1 -2 -2 -2 -2 -1 -1 -2 -2 -2 -3 -4 -5 -5 -5 -5 -5 -5 -5 -5 -5 -5 -5 -5 -5
3 4 5 6 5 4 3 4 5 4 4 3 1 1 2 2 -1 -2 -2 -2 -2 -2 -2 -2 -2 -2 -3 -3 -4 -5 -5 -6 -6 -6 -6 -6 -6 -6 -6 -6 -6 -6 -6 -6
2 2 3 6 4 3 3 4 5 3 2 0 -0 0 1 -1 -2 -2 -2 -2 -2 -2 -3 -3 -3 -4 -4 -4 -5 -6 -6 -7 -7 -7 -7 -7 -7 -7 -7 -7 -7 -7 -7 -7
2 2 4 5 3 3 3 3 3 2 0 -1 -2 -2 -2 -2 -3 -3 -3 -3 -3 -3 -4 -4 -5 -5 -6 -6 -7 -7 -8 -8 -8 -8 -8 -8 -8 -8 -8 -8 -8 -8 -8 -8
2 1 3 4 4 4 3 3 2 0 -2 -3 -3 -3 -3 -3 -4 -5 -5 -5 -5 -5 -5 -6 -6 -6 -7 -7 -8 -8 -9 -9 -9 -9 -9 -9 -9 -9 -9 -9 -9 -9 -9 -9
3 4 5 4 3 3 2 1 -0 -2 -4 -4 -4 -4 -5 -5 -6 -7 -7 -7 -7 -7 -7 -7 -8 -8 -8 -9 -9 -10 -10 -10 -10 -10 -10 -10 -10 -10 -10 -10 -10 -10 -9 -9
2 3 3 3 3 2 0 -1 -3 -4 -5 -5 -6 -6 -6 -7 -8 -8 -8 -8 -9 -9 -9 -9 -9 -10 -10 -10 -10 -11 -11 -11 -11 -11 -10 -10 -10 -10 -11 -11 -11 -10 -10 -10
2 3 2 2 2 1 -1 -3 -4 -5 -6 -6 -7 -7 -8 -8 -9 -9 -9 -10 -10 -10 -11 -11 -11 -11 -11 -11 -11 -11 -11 -11 -11 -11 -11 -11 -11 -11 -11 -11 -11 -11 -11 -11
3 3 2 2 1 -1 -3 -4 -6 -6 -7 -7 -8 -8 -9 -9 -10 -10 -10 -11 -11 -12 -12 -12 -12 -11 -11 -11 -11 -11 -11 -12 -12 -12 -12 -12 -11 -11 -11 -11 -11 -12 -12 -12
1 1 0 -0 -1 -2 -4 -5 -6 -7 -7 -8 -8 -9 -9 -10 -10 -10 -11 -11 -12 -12 -12 -12 -12 -12 -12 -12 -12 -12 -12 -13 -13 -13 -13 -12 -12 -12 -12 -12 -12 -12 -12 -12
-0 -1 -1 -1 -2 -4 -5 -6 -7 -7 -8 -8 -9 -9 -9 -10 -10 -11 -11 -12 -12 -13 -12 -12 -12 -13 -12 -12 -13 -13 -13 -13 -13 -13 -13 -13 -13 -13 -13 -13 -13 -13 -13 -13
1 -0 -1 -2 -3 -5 -6 -7 -7 -8 -8 -9 -9 -9 -10 -10 -11 -11 -12 -12 -13 -13 -12 -12 -13 -13 -13 -13 -13 -14 -14 -14 -14 -14 -14 -14 -14 -14 -14 -14 -14 -14 -14 -14
1 1 -1 -2 -4 -6 -7 -8 -8 -8 -9 -9 -9 -9 -10 -11 -11 -12 -12 -12 -12 -13 -13 -13 -13 -14 -14 -14 -14 -14 -14 -14 -15 -15 -15 -15 -15 -15 -15 -15 -15 -15 -15 -15
0 -0 -2 -3 -5 -6 -7 -8 -8 -9 -9 -9 -9 -10 -10 -11 -12 -12 -12 -12 -13 -14 -14 -14 -14 -14 -14 -14 -14 -15 -15 -15 -15 -15 -15 -15 -15 -15 -15 -15 -15 -15 -15 -15
-0 -1 -2 -3 -5 -6 -7 -8 -8 -9 -9 -9 -10 -10 -10 -11 -11 -12 -12 -13 -13 -14 -14 -14 -14 -14 -14 -15 -15 -15 -15 -15 -15 -16 -16 -16 -16 -16 -16 -16 -16 -15 -15 -15
-1 -1 -3 -4 -5 -7 -8 -8 -8 -9 -9 -10 -10 -10 -11 -11 -12 -12 -13 -13 -14 -14 -14 -14 -15 -15 -15 -15 -15 -15 -15 -15 -16 -16 -16 -16 -16 -16 -16 -16 -16 -16 -16 -16
-1 -2 -3 -5 -6 -7 -8 -9 -9 -9 -10 -10 -11 -11 -11 -12 -12 -13 -13 -14 -15 -15 -15 -15 -15 -15 -15 -15 -15 -15 -15 -15 -16 -16 -16 -16 -16 -16 -16 -16 -16 -16 -16 -16
-2 -3 -4 -6 -7 -8 -9 -9 -10 -10 -11 -11 -11 -11 -12 -12 -13 -13 -14 -14 -15 -15 -15 -15 -15 -15 -15 -15 -15 -15 -15 -15 -15 -15 -15 -16 -16 -16 -16 -16 -16 -16 -16 -16
-3 -4 -5 -7 -8 -8 -9 -9 -10 -11 -11 -11 -11 -12 -12 -13 -13 -14 -14 -15 -15 -15 -15 -15 -15 -15 -15 -15 -15 -15 -15 -15 -15 -15 -15 -15 -16 -15 -15 -15 -16 -16 -16 -16
-3 -5 -6 -8 -8 -9 -9 -10 -10 -11 -11 -11 -12 -12 -13 -13 -14 -14 -14 -15 -15 -15 -15 -15 -15 -15 -15 -15 -15 -15 -15 -15 -15 -15 -15 -15 -15 -15 -15 -15 -15 -15 -15 -15
-5 -6 -7 -8 -9 -9 -10 -10 -11 -11 -11 -12 -12 -13 -13 -13 -14 -14 -15 -15 -15 -15 -15 -15 -15 -15 -15 -15 -15 -15 -15 -15 -15 -15 -15 -15 -15 -15 -15 -15 -15 -15 -15 -15
-6 -7 -8 -9 -9 -9 -10 -11 -11 -11 -11 -12 -13 -13 -13 -14 -14 -14 -15 -15 -15 -15 -15 -15 -15 -15 -15 -15 -15 -15 -15 -15 -15 -15 -15 -15 -15 -15 -15 -15 -15 -15 -14 -14
-6 -7 -8 -9 -9 -10 -10 -11 -11 -11 -12 -13 -13 -13 -14 -14 -14 -14 -15 -15 -15 -15 -15 -15 -15 -15 -14 -14 -14 -15 -15 -15 -15 -15 -15 -15 -15 -15 -15 -15 -15 -15 -15 -14
-7 -8 -9 -9 -10 -10 -11 -11 -11 -12 -12 -13 -13 -13 -14 -14 -14 -14 -14 -15 -15 -15 -15 -15 -14 -14 -14 -14 -14 -14 -14 -15 -15 -14 -14 -14 -15 -15 -15 -15 -15 -15 -15 -15
Wind_Speed
11 12 11 16 18 14 11 11 11 16 22 26 26 27 29 31 33 35 34 33 30 28 24 22 20 16 10 7 6 7 6 6 5 5 4 3 4 3 3 2 2 2 3 4
6 5 8 15 15 8 6 7 12 18 24 24 25 27 29 33 34 33 31 31 31 29 26 24 22 17 9 5 4 4 4 5 5 5 5 5 4 4 2 1 2 2 4 6
4 6 10 8 2 3 6 9 12 20 22 23 30 31 32 33 30 27 29 31 30 28 24 22 19 13 5 2 3 3 4 5 6 6 5 5 4 4 3 2 2 3 4 6
5 6 4 2 4 4 9 13 18 16 17 26 30 31 30 25 23 28 30 29 26 22 20 18 12 4 3 4 4 5 6 6 7 7 6 5 4 4 3 2 2 2 4 4
2 5 10 7 3 6 12 21 12 14 26 29 31 27 20 18 25 26 27 24 21 18 15 12 7 5 5 6 6 7 7 8 8 8 8 6 4 3 2 1 1 2 3 4
2 5 5 2 3 6 12 11 10 23 27 28 28 22 18 24 27 25 24 20 17 14 12 11 10 8 8 8 8 9 8 8 8 8 7 6 5 4 3 2 1 1 2 3
6 6 8 5 5 12 10 13 23 25 25 24 19 18 22 26 24 22 20 18 14 12 12 12 11 10 10 10 10 9 8 7 7 8 7 6 5 4 4 3 2 2 3 3
4 5 6 2 10 9 14 21 22 23 21 20 20 21 21 20 19 19 17 15 13 11 12 12 12 10 10 10 10 9 8 7 7 7 7 5 5 4 4 4 3 3 4 4
6 7 10 11 13 15 16 19 20 19 19 19 18 17 17 16 15 15 15 13 12 11 11 11 12 11 11 11 10 9 8 7 7 7 7 6 5 4 4 4 4 4 4 4
7 11 13 15 15 13 13 15 17 16 15 14 14 14 14 13 13 13 13 12 11 11 11 11 11 11 11 11 10 9 8 8 7 7 7 6 5 5 4 4 4 5 5 5
8 12 12 10 10 14 13 14 14 13 11 12 12 12 12 11 12 11 11 11 10 10 10 11 11 11 12 12 11 10 9 8 8 7 7 6 6 5 6 5 6 7 6 6
5 8 10 15 16 14 11 12 12 11 11 11 10 11 11 9 10 10 10 10 10 10 10 11 11 11 12 12 11 11 9 9 8 7 7 7 7 6 4 6 9 9 8 9
9 12 14 17 14 8 9 10 10 7 7 9 9 9 9 8 9 9 10 10 11 11 10 10 10 11 11 11 11 10 10 9 8 8 8 8 8 8 8 7 7 7 8 10
13 13 12 8 8 8 8 8 7 4 5 6 7 8 8 8 8 9 10 10 10 10 10 10 10 11 11 11 11 10 10 10 10 8 8 8 8 8 8 8 9 7 8 10
9 8 10 10 9 7 6 6 6 5 5 6 6 7 7 7 7 8 8 9 9 9 10 11 11 11 12 11 11 11 10 9 10 9 8 8 8 8 7 8 8 9 8 8
13 12 9 8 8 8 6 6 6 5 5 6 6 6 6 6 6 7 8 9 10 10 10 10 11 12 12 11 11 10 10 13 12 9 8 7 7 7 7 8 8 8 8 8
7 9 8 9 9 7 5 4 4 4 4 5 5 5 5 5 6 8 9 9 9 9 9 10 11 11 11 11 11 9 9 10 12 9 7 7 8 8 8 8 9 9 9 10
8 8 8 7 6 5 3 2 2 3 3 4 4 4 6 7 8 8 9 9 9 9 11 12 11 9 11 11 9 8 8 8 8 8 8 8 9 8 9 9 10 11 11 11
7 7 5 3 1 1 1 1 2 2 3 3 4 5 5 6 7 7 8 8 9 11 12 12 13 9 10 12 11 8 9 9 8 8 8 10 10 9 9 10 11 11 11 11
6 4 3 3 3 2 2 1 1 2 3 3 4 5 6 6 7 7 7 6 7 9 11 12 10 8 8 10 12 8 9 9 9 8 8 8 9 10 11 11 11 11 11 10
6 5 5 5 4 3 2 1 2 2 3 3 4 4 5 6 7 7 7 7 9 12 11 13 10 7 7 10 11 9 9 9 8 8 8 9 10 10 11 11 11 10 10 10
4 5 5 5 5 4 3 3 3 3 3 4 4 5 5 6 7 7 6 6 9 13 9 8 10 11 13 12 9 9 10 10 9 9 9 10 11 11 12 12 11 11 10 10
2 4 5 6 6 5 4 3 3 2 3 4 5 6 6 6 6 6 6 7 9 12 9 8 14 17 17 11 9 10 11 11 11 10 11 12 12 13 13 13 12 12 11 11
4 6 7 7 7 6 4 3 1 1 1 2 3 4 5 5 5 5 6 10 13 13 8 12 18 19 16 10 10 11 11 11 11 11 13 13 13 13 13 13 13 12 12 13
7 7 7 7 5 4 4 3 2 1 2 2 4 5 5 4 5 6 7 8 12 12 9 12 17 19 13 10 11 12 12 13 14 15 15 15 15 15 15 14 14 13 13 12
6 6 5 4 4 4 4 3 3 2 2 3 4 5 5 5 6 6 6 8 10 12 10 9 12 14 12 12 14 14 14 16 17 16 16 17 18 18 17 17 19 16 14 13
7 7 5 5 4 4 3 3 3 3 3 3 4 5 5 6 6 7 8 7 8 9 10 10 11 12 13 14 15 15 15 16 17 17 18 18 19 19 19 21 18 16 15 14
Wind_Direction
275 292 290 277 282 294 281 270 279 298 309 316 324 326 325 323 321 319 319 320 321 320 318 317 318 312 300 309 332 343 349 355 355 356 2 30 56 53 39 28 23 25 33 33
275 283 294 279 289 290 269 280 291 302 308 322 321 322 322 321 319 318 321 323 321 318 316 316 316 313 299 305 344 357 1 0 358 359 5 20 31 25 19 33 62 63 53 45
277 311 297 286 53 4 317 311 311 309 314 321 321 324 323 318 318 326 326 321 317 315 312 311 312 312 304 351 23 18 13 10 6 2 2 7 12 13 18 44 67 63 54 49
291 316 272 70 59 356 323 309 311 312 324 325 320 320 315 316 336 329 323 321 319 317 314 314 320 345 61 58 43 30 22 16 8 1 359 2 8 16 17 31 64 63 52 44
279 291 283 294 60 6 329 311 322 333 326 324 323 317 317 342 337 326 324 325 325 325 325 334 2 41 57 50 39 29 20 13 6 359 356 359 9 14 6 351 19 49 43 31
239 287 280 327 40 333 309 302 352 334 327 326 325 323 326 333 329 332 335 338 343 351 8 19 26 35 43 38 31 21 11 7 5 0 358 1 5 4 355 337 340 2 18 12
243 256 270 320 340 325 314 321 328 326 326 324 320 311 311 322 333 342 348 357 11 28 34 30 27 33 36 29 19 7 1 3 7 4 358 359 354 354 344 335 323 317 317 324
229 243 270 343 323 324 314 317 321 324 324 319 314 312 319 330 341 350 357 8 19 31 34 28 25 26 26 18 4 359 1 6 7 6 2 355 349 350 347 332 310 302 302 304
235 261 305 314 305 308 315 316 321 323 322 319 318 321 331 340 349 355 3 9 16 24 28 24 19 19 16 6 359 359 4 8 7 5 5 358 352 351 345 335 325 316 314 317
269 273 287 296 305 318 322 320 320 322 324 330 331 335 341 347 352 357 3 8 11 16 18 16 13 15 11 4 0 3 9 9 8 6 5 4 357 352 345 336 334 331 328 327
262 282 297 299 313 324 321 323 324 326 336 342 339 341 346 350 355 358 1 5 8 9 10 10 11 13 9 5 2 0 5 6 3 2 355 352 352 348 335 329 325 325 326 319
283 305 305 304 319 326 323 325 325 326 335 347 350 345 349 354 356 357 358 359 360 3 6 7 9 11 9 4 3 0 356 356 354 351 347 344 338 332 330 324 324 324 321 315
277 294 297 297 308 322 322 322 323 330 343 344 351 353 353 354 355 355 355 358 359 360 1 1 3 5 2 357 355 355 349 345 342 342 342 340 335 330 326 324 318 315 319 320
271 283 288 292 309 319 321 321 320 329 347 349 351 356 356 356 357 360 358 356 357 358 358 355 354 356 353 349 348 346 343 339 334 331 333 332 329 326 323 323 323 323 323 322
286 271 272 291 304 313 318 320 320 329 341 349 354 355 355 356 357 356 354 354 353 355 354 351 350 349 348 345 344 343 341 339 336 334 334 331 328 326 324 323 321 319 319 322
303 298 288 292 304 315 318 320 321 330 341 347 354 356 355 355 355 357 358 354 350 349 347 346 343 345 348 347 343 343 343 344 346 343 340 339 337 334 333 329 324 320 319 322
294 305 313 310 315 317 313 314 318 327 338 351 355 356 1 3 5 3 356 350 343 340 345 346 340 346 348 348 347 346 345 346 350 347 347 342 337 337 334 329 324 319 316 315
268 277 284 289 298 304 303 317 332 339 350 354 2 11 14 9 358 346 339 339 344 350 355 346 344 355 350 352 356 349 346 345 344 343 342 339 340 337 331 326 323 322 321 319
282 276 270 258 268 282 303 358 356 5 7 12 22 24 14 358 341 334 336 343 351 352 346 337 348 354 352 353 358 348 344 342 340 340 338 336 339 337 334 331 329 327 323 321
273 253 214 160 122 120 124 125 96 64 44 39 42 31 16 359 346 340 339 346 353 337 332 339 346 344 346 349 352 344 340 336 332 332 331 332 334 334 334 334 330 327 324 320
266 222 188 163 146 131 112 94 85 76 60 47 38 15 352 347 350 349 346 350 344 341 344 343 339 336 349 351 345 339 337 333 326 321 319 320 321 321 322 322 321 319 315 315
246 202 182 164 152 133 99 86 89 87 69 48 30 7 353 351 351 351 354 340 333 344 350 337 336 351 358 351 337 333 330 326 319 311 307 307 309 309 309 310 309 308 308 309
221 171 155 146 139 129 114 96 89 80 56 36 19 5 358 351 351 348 347 340 334 345 348 334 341 349 351 342 330 326 323 318 312 306 302 300 301 300 299 298 297 297 296 297
135 121 115 114 124 131 126 119 103 72 42 32 23 1 352 351 353 353 334 330 335 341 339 333 340 343 342 332 322 319 316 312 306 300 298 296 295 292 289 287 286 286 285 286
116 116 123 133 139 134 133 143 139 111 86 55 32 19 12 3 347 336 331 330 334 337 333 330 335 336 332 319 315 311 308 302 297 297 296 295 290 286 282 280 277 276 276 275
125 128 130 128 124 130 137 135 114 86 62 45 32 17 8 357 344 338 333 332 333 334 331 324 323 323 319 314 311 308 305 302 300 297 291 288 284 281 277 274 273 270 269 267
120 122 125 123 126 134 133 126 107 84 63 48 34 18 5 357 350 344 339 334 332 329 326 323 319 316 313 312 310 308 306 303 299 295 292 288 284 281 278 275 272 268 265 263
Height
1545 1544 1545 1541 1536 1537 1540 1537 1535 1527 1525 1520 1517 1515 1510 1504 1497 1489 1482 1475 1469 1463 1458 1453 1449 1444 1438 1433 1429 1424 1420 1417 1414 1412 1410 1408 1408 1409 1410 1411 1412 1413 1414 1414
1548 1549 1547 1540 1535 1537 1538 1537 1535 1531 1525 1523 1520 1516 1510 1502 1495 1486 1478 1472 1465 1459 1453 1448 1444 1439 1434 1430 1426 1422 1419 1415 1413 1411 1409 1407 1407 1407 1407 1409 1411 1412 1412 1412
1542 1547 1544 1531 1534 1537 1537 1536 1536 1532 1529 1523 1516 1513 1508 1499 1491 1484 1477 1470 1461 1454 1448 1442 1438 1434 1430 1427 1424 1421 1418 1415 1413 1411 1409 1407 1406 1406 1408 1410 1411 1411 1411 1410
1548 1547 1546 1534 1540 1540 1538 1535 1533 1528 1526 1523 1517 1511 1505 1495 1490 1483 1474 1465 1456 1449 1442 1438 1433 1430 1427 1425 1423 1420 1417 1415 1413 1411 1409 1407 1407 1408 1409 1411 1411 1410 1409 1409
1553 1544 1536 1534 1539 1541 1539 1532 1528 1528 1524 1519 1511 1504 1497 1493 1489 1481 1471 1462 1453 1446 1440 1435 1431 1428 1426 1424 1422 1420 1418 1416 1413 1411 1410 1409 1409 1410 1410 1411 1410 1409 1407 1407
1557 1551 1543 1533 1541 1541 1538 1526 1526 1527 1522 1516 1507 1496 1489 1489 1483 1475 1467 1459 1451 1444 1439 1435 1432 1429 1427 1424 1422 1420 1418 1416 1414 1412 1411 1410 1410 1410 1410 1409 1408 1407 1405 1405
1554 1553 1539 1538 1541 1540 1534 1530 1527 1524 1520 1515 1509 1503 1493 1485 1479 1472 1465 1457 1450 1444 1439 1435 1433 1430 1428 1425 1423 1420 1418 1416 1414 1412 1411 1410 1410 1409 1408 1407 1406 1405 1404 1402
1552 1552 1545 1540 1539 1537 1535 1530 1527 1523 1518 1512 1506 1498 1491 1484 1477 1470 1464 1457 1451 1445 1441 1437 1434 1431 1429 1426 1424 1421 1419 1417 1414 1412 1411 1409 1408 1407 1406 1405 1405 1403 1402 1401
1547 1543 1538 1538 1537 1536 1534 1529 1524 1519 1514 1508 1502 1496 1489 1483 1477 1471 1465 1459 1453 1448 1444 1440 1436 1433 1430 1428 1425 1422 1420 1418 1415 1412 1410 1408 1407 1406 1405 1404 1404 1403 1402 1400
1546 1540 1538 1536 1534 1533 1531 1526 1521 1516 1510 1505 1499 1493 1488 1482 1477 1472 1466 1461 1456 1451 1446 1442 1438 1435 1432 1429 1426 1424 1422 1419 1416 1414 1411 1409 1407 1406 1405 1404 1403 1402 1401 1399
1544 1539 1537 1533 1532 1530 1525 1521 1516 1511 1507 1502 1497 1492 1487 1482 1477 1472 1468 1463 1458 1453 1449 1445 1441 1437 1434 1431 1428 1426 1424 1421 1418 1415 1412 1410 1407 1405 1404 1403 1401 1400 1398 1397
1540 1537 1536 1532 1529 1525 1520 1516 1512 1507 1503 1499 1495 1490 1486 1482 1477 1473 1469 1464 1460 1456 1452 1448 1444 1440 1437 1433 1430 1427 1424 1422 1418 1415 1412 1410 1407 1405 1402 1400 1398 1396 1395 1394
1539 1536 1533 1529 1525 1521 1516 1512 1508 1505 1501 1497 1493 1489 1485 1481 1477 1473 1470 1466 1462 1458 1455 1451 1447 1442 1438 1435 1431 1428 1425 1421 1418 1415 1412 1409 1406 1403 1400 1398 1396 1393 1391 1389
1534 1532 1528 1524 1522 1517 1512 1509 1505 1502 1498 1495 1491 1487 1484 1481 1477 1473 1470 1466 1463 1460 1456 1452 1448 1444 1439 1435 1432 1428 1424 1421 1418 1414 1411 1407 1404 1401 1399 1396 1394 1391 1389 1386
1530 1528 1524 1520 1517 1513 1509 1505 1503 1499 1496 1493 1489 1486 1483 1479 1476 1473 1470 1467 1464 1460 1456 1452 1448 1444 1440 1435 1431 1428 1424 1420 1416 1413 1409 1406 1403 1400 1397 1394 1392 1389 1386 1383
1526 1523 1520 1516 1513 1509 1506 1503 1500 1497 1494 1491 1488 1484 1481 1479 1476 1474 1470 1467 1463 1460 1456 1452 1448 1444 1440 1435 1431 1427 1422 1418 1415 1411 1408 1404 1401 1399 1396 1393 1390 1386 1384 1381
1522 1519 1515 1512 1509 1505 1502 1500 1497 1495 1492 1489 1486 1483 1481 1479 1477 1474 1471 1467 1464 1460 1456 1452 1448 1444 1440 1435 1430 1426 1422 1418 1414 1410 1407 1404 1401 1398 1394 1391 1388 1384 1381 1378
1519 1515 1511 1508 1504 1501 1499 1497 1495 1493 1490 1487 1485 1483 1481 1479 1476 1473 1470 1467 1463 1460 1456 1452 1449 1444 1440 1435 1430 1426 1422 1418 1414 1411 1407 1403 1400 1397 1393 1389 1385 1382 1378 1375
1514 1510 1507 1503 1500 1498 1496 1495 1493 1491 1489 1486 1484 1482 1481 1478 1476 1472 1469 1465 1462 1458 1455 1451 1448 1444 1440 1435 1431 1426 1422 1418 1414 1410 1407 1403 1399 1396 1392 1388 1383 1379 1375 1371
1510 1506 1502 1499 1497 1495 1494 1493 1492 1490 1488 1486 1484 1482 1480 1478 1475 1472 1468 1465 1462 1458 1455 1452 1448 1444 1439 1435 1431 1426 1422 1418 1414 1410 1406 1402 1398 1394 1390 1386 1381 1376 1372 1368
1505 1501 1498 1496 1494 1493 1493 1492 1491 1489 1488 1486 1484 1482 1480 1477 1474 1471 1467 1465 1461 1458 1455 1452 1448 1444 1440 1436 1431 1426 1422 1417 1413 1409 1405 1401 1397 1392 1388 1383 1379 1374 1370 1366
1500 1497 1494 1493 1492 1492 1492 1491 1490 1489 1488 1486 1484 1482 1480 1477 1474 1470 1467 1464 1461 1459 1455 1451 1448 1445 1441 1436 1431 1426 1421 1416 1412 1407 1403 1398 1394 1389 1385 1380 1375 1371 1367 1363
1495 1493 1492 1491 1491 1491 1491 1490 1490 1489 1488 1486 1484 1482 1479 1476 1473 1470 1467 1465 1461 1459 1455 1452 1448 1445 1440 1435 1430 1425 1419 1414 1409 1404 1399 1394 1389 1384 1379 1374 1370 1366 1362 1358
1492 1490 1490 1490 1490 1490 1490 1490 1490 1489 1488 1486 1484 1482 1479 1477 1474 1471 1468 1465 1461 1459 1455 1452 1448 1444 1439 1434 1428 1422 1417 1411 1405 1399 1394 1388 1383 1377 1372 1367 1362 1358 1355 1352
1489 1488 1488 1489 1489 1490 1490 1490 1490 1489 1488 1486 1484 1482 1479 1477 1475 1472 1468 1465 1462 1459 1456 1452 1447 1443 1437 1431 1425 1419 1413 1406 1400 1394 1387 1380 1373 1367 1361 1356 1352 1348 1345 1343
1487 1487 1488 1488 1489 1489 1490 1490 1490 1489 1488 1486 1485 1483 1480 1478 1475 1472 1469 1466 1463 1460 1456 1451 1446 1441 1435 1428 1421 1414 1407 1399 1391 1383 1375 1367 1359 1353 1346 1341 1338 1335 1333 1331
1486 1486 1487 1488 1489 1489 1490 1490 1490 1489 1488 1487 1485 1484 1481 1479 1476 1473 1470 1467 1464 1460 1456 1451 1445 1439 1432 1424 1416 1408 1399 1391 1382 1372 1363 1353 1345 1337 1330 1325 1322 1320 1319 1318